Find Starlink 5337

NORAD ID: 55284 Int'l Des: 2023-010 Owner: SPXS Country: US Constellation: starlink operational
LEOCIRCULAR

Live Position

Loading 3D Globe...

About Starlink 5337

Description loading...

Upcoming Passes

Passes for default location (London). Set your location on the main map for personalized predictions.

Altitude History

Loading altitude history...

Two-Line Element Set

1 55284U 23010R 26126.92796840 .00185135 00000-0 14939-1 0 9992
2 55284 70.0009 257.4382 0003233 287.9281 72.1526 14.98790332181493
Epoch: May 6, 2026 • Age: 8 hours

Current Status

Altitude 589.1 km
Velocity 7.57 km/s
Sub-Earth Point -55.72°S, 90.65°W
Launch Date Jan 19, 2023
Age 3.2 years
Type internet

Technical Details

Classification Payload
Mass 305.00 kg
Dry Mass 290.00 kg
Total Mass 305.00 kg
Length 0.20 m
Diameter 2.80 m
Span 9.00 m
Shape Box + pan
Manufacturer SPXS
Bus Type Starlink
Phase Status In Orbit
Owner/State SPXS/US

Most Searched